ELEKTRO-L 2

Last updated on Fri Jun 19 2026 17:09:12 GMT+0000 (Coordinated Universal Time)

1 41105U 15074A 26169.03651196 -.00000126 00000+0 00000+0 0 9991 2 41105 6.6975 70.5132 0000902 256.1704 298.2263 1.00270556 38515
UTC large
Height (km)
Speed (km/s)
/
Latitude / Longitude
Inclination (degrees)
Orbital Period (minutes)
Azimuth
Elevation
Range (km)
Doppler Factor

Next 0 passes for location: London (51.5072 / 0.1276)

No passes found over London.
ELEKTRO-L 2